Hourly Data Report for October 30, 2013

All times are specified in Local Standard Time (LST). Add 1 hour to adjust for Daylight Saving Time where and when it is observed.

ST LEONARD CS
NEW BRUNSWICK

47°09'28.050" N
67°49'55.014" W
245.00 m
810I001
71019
WIY

Download Data

Hourly Data (October 2013)
Hourly Data Report for October 30, 2013
Temp Definition
°C
Dew Point Temp Definition
°C
Rel Hum Definition
%
Wind Dir Definition
10's deg

Wind Spd Definition
km/h
Visibility Definition
km
Stn Press Definition
kPa
Hmdx Definition


Wind Chill Definition


Weather Definition


TIME
00:00 -5.3 -6.7 90 18 6   99.55   -8 LegendNANA
01:00 -5.5 -7.0 89 18 4   99.52   -7 LegendNANA
02:00 -5.2 -6.7 89 23 6   99.45   -8 LegendNANA
03:00 -5.9 -7.0 92 23 7   99.45   -9 LegendNANA
04:00 -4.8 -6.3 89 21 6   99.40   -8 LegendNANA
05:00 -4.2 -6.0 87 22 4   99.38   -6 LegendNANA
06:00 -4.6 -6.2 89 22 2   99.34   -5 LegendNANA
07:00 -5.0 -6.5 89 18 2   99.28   -6 LegendNANA
08:00 -4.1 -6.0 87 21 9   99.29   -8 LegendNANA
09:00 -3.5 -5.6 85 23 7   99.26   -6 LegendNANA
10:00 -2.9 -4.9 86 21 9   99.22   -6 LegendNANA
11:00 -0.2 -4.4 73 25 9   99.16   -3 LegendNANA
12:00 1.7 -4.9 62 26 15   99.06     LegendNANA
13:00 1.7 -4.7 62 23 11   98.94     LegendNANA
14:00 2.7 -4.6 59 25 17   98.90     LegendNANA
15:00 3.4 -5.9 51 26 20   98.85     LegendNANA
16:00 3.6 -5.4 52 27 13   98.84     LegendNANA
17:00 2.3 -5.8 55 26 11   98.86     LegendNANA
18:00 0.9 -5.8 61 26 7   98.89     LegendNANA
19:00 0.0 -5.7 65 25 9   98.92   -3 LegendNANA
20:00 -0.3 -5.3 69 26 11   98.91   -4 LegendNANA
21:00 0.2 -4.5 71 28 9   98.96     LegendNANA
22:00 -0.9 -5.1 73 26 7   99.00   -3 LegendNANA
23:00 -1.1 -5.0 75 25 6   98.98   -3 LegendNANA

Notes on Data Quality.

Legend

  • E = Estimated
  • M = Missing
  • NA = Not Available
  • ‡ = Partner data that is not subject to review by the National Climate Archives
Date modified: